sat.trackr.live / text

‹ back to catalog

STARLINK-31795

NORAD 59645 · 2024-082Q

PAYLOAD ACTIVE UNKNOWN

§ Identity

Operator
Country
US
Launch date
2024-05-03
Launch site
AFETR
Launch vehicle
Mass (kg)
RCS (m²)

Purposes: comms

External: N2YO · Heavens-Above · Gunter

§ Orbital elements

Epoch: 2026-09-21T19:20:47.500512Z

Period
94.26 min
Inclination
43.0046°
Eccentricity
0.0001650
Mean motion
15.27619705 rev/d
Perigee alt
481.8 km
Apogee alt
484.1 km
Semi-major
6,861.1 km
B*
-3.7581e-4
RAAN
53.6802°
Arg perigee
284.7476°
Mean anomaly
75.3193°
Rev number
13,547

§ Raw data

STARLINK-317951 59645U 24082Q   26264.80610533 -.00010602  00000+0 -37581-3 0  99982 59645  43.0046  53.6802 0001650 284.7476  75.3193 15.27619705135473

JSON: /api/v1/satellites/59645 · /tle

For live sub-satellite position, see the globe view (requires WebGL).

§ Visibility from observer

Set your observer location to see the next 7 days of passes ≥ 10°. The values pass through the URL so the page stays shareable.

No JS? Fill the form by hand. The geolocation button needs JavaScript.